Charlevoix, MI

4:42 AM EST on December 04, 2016 (GMT -0500)
Charlevoix Municipal

Weather History for KCVX - March, 2012

Change the Weather History Date:

Thursday, March 22, 2012

  Actual Average Record
Temperature  
Mean Temperature 56 °F -  
Max Temperature 66 °F 47 °F 66 °F (2012)
Min Temperature 45 °F 31 °F 10 °F (2014)
Degree Days  
Heating Degree Days 10    
Growing Degree Days 6 (Base 50)    
Moisture  
Dew Point 50 °F    
Average Humidity 84    
Maximum Humidity 98    
Minimum Humidity 65    
Precipitation  
Precipitation 0.00 in - - ()
Sea Level Pressure  
Sea Level Pressure 30.16 in    
Wind  
Wind Speed 6 mph (ENE)    
Max Wind Speed 14 mph    
Max Gust Speed 20 mph    
Visibility 9 miles    
Events Rain    
Averages and records for this station are not official NWS values.
T = Trace of Precipitation, MM = Missing Value Source: NWS Daily Summary

Daily Weather History Graph

Daily Weather History Graph

Search for Another Location

Airport or City:

Trip Planner

Search our weather history database for the weather conditions in past years. The results will help you decide how hot, cold, wet, or windy it might be!

Date:

Astronomy

Mar. 22, 2012 Rise Set
Actual Time 7:39 AM EDT 7:56 PM EDT
Civil Twilight 7:10 AM EDT 8:26 PM EDT
Nautical Twilight 6:35 AM EDT 9:01 PM EDT
Astronomical Twilight 5:59 AM EDT 9:37 PM EDT
Moon 7:16 AM EDT (3/22) 8:24 PM EDT (3/22)
Length of Visible Light 13h 16m
Length of Day
12h 17m
New Moon, 0% of the Moon is Illuminated
Mar 22
New Moon
Mar 30
First Quarter
Apr 6
Full
Apr 13
Last Quarter
Apr 21
New

Hourly Weather History & Observations

Time (EDT) Temp. Windchill Dew Point Humidity Pressure Visibility Wind Dir Wind Speed Gust Speed Precip Events Conditions
12:14 AM 50.0 °F - 44.8 °F 82% 30.12 in 7.0 mi North 9.2 mph 16.1 mph N/A   Clear
12:35 AM 47.8 °F - 44.4 °F 88% 30.13 in 5.0 mi North 6.9 mph - N/A   Scattered Clouds
12:55 AM 50.2 °F - 46.4 °F 87% 30.12 in 7.0 mi North 4.6 mph - N/A   Overcast
1:14 AM 49.3 °F - 45.0 °F 85% 30.13 in 7.0 mi North 6.9 mph - N/A   Overcast
1:35 AM 52.0 °F - 47.3 °F 84% 30.13 in 7.0 mi North 4.6 mph - N/A   Overcast
1:55 AM 53.4 °F - 47.5 °F 80% 30.12 in 7.0 mi Calm Calm - N/A   Overcast
2:14 AM 53.4 °F - 47.8 °F 81% 30.12 in 7.0 mi Calm Calm - N/A   Scattered Clouds
2:35 AM 53.1 °F - 47.8 °F 82% 30.12 in 10.0 mi East 3.5 mph - N/A   Clear
2:54 AM 52.7 °F - 47.7 °F 83% 30.12 in 7.0 mi SSE 3.5 mph - N/A   Clear
3:15 AM 51.3 °F - 47.3 °F 86% 30.12 in 7.0 mi Calm Calm - N/A   Clear
3:34 AM 52.0 °F - 47.7 °F 85% 30.12 in 7.0 mi East 3.5 mph - N/A   Scattered Clouds
3:55 AM 52.0 °F - 47.3 °F 84% 30.12 in 10.0 mi SE 3.5 mph - N/A   Scattered Clouds
4:14 AM 51.3 °F - 47.1 °F 86% 30.13 in 10.0 mi NNE 3.5 mph - N/A   Mostly Cloudy
4:35 AM 51.1 °F - 46.4 °F 84% 30.14 in 10.0 mi Calm Calm - N/A   Mostly Cloudy
4:54 AM 51.3 °F - 46.6 °F 84% 30.14 in 10.0 mi Calm Calm - N/A   Mostly Cloudy
5:15 AM 51.3 °F - 46.6 °F 84% 30.14 in 10.0 mi Calm Calm - N/A   Mostly Cloudy
5:35 AM 51.4 °F - 47.3 °F 86% 30.16 in 10.0 mi Calm Calm - N/A   Mostly Cloudy
5:54 AM 53.2 °F - 48.0 °F 82% 30.14 in 10.0 mi ESE 4.6 mph - N/A   Overcast
6:15 AM 51.6 °F - 46.8 °F 83% 30.14 in 10.0 mi ESE 3.5 mph - N/A   Scattered Clouds
6:34 AM 49.8 °F - 45.5 °F 85% 30.15 in 10.0 mi Calm Calm - N/A   Clear
6:55 AM 47.1 °F - 45.7 °F 95% 30.17 in 5.0 mi North 6.9 mph - N/A   Clear
7:15 AM 47.8 °F - 46.8 °F 96% 30.17 in 5.0 mi Calm Calm - N/A   Clear
7:34 AM 48.6 °F - 47.3 °F 95% 30.17 in 5.0 mi North 6.9 mph - N/A   Clear
7:55 AM 49.6 °F - 48.4 °F 95% 30.18 in 5.0 mi NNE 5.8 mph - N/A   Clear
8:14 AM 49.6 °F - 48.4 °F 95% 30.19 in 5.0 mi Calm Calm - N/A   Scattered Clouds
8:34 AM 50.2 °F - 48.7 °F 95% 30.19 in 7.0 mi Calm Calm - N/A   Mostly Cloudy
8:55 AM 53.1 °F - 50.9 °F 92% 30.20 in 10.0 mi NNE 3.5 mph - N/A   Mostly Cloudy
9:14 AM 55.4 °F - 52.0 °F 88% 30.20 in 10.0 mi ENE 4.6 mph - N/A Rain Light Rain
9:34 AM 54.1 °F - 50.4 °F 87% 30.20 in 10.0 mi North 8.1 mph - N/A   Scattered Clouds
9:55 AM 52.7 °F - 51.3 °F 95% 30.22 in 10.0 mi North 4.6 mph - N/A   Mostly Cloudy
10:15 AM 49.3 °F - 47.8 °F 95% 30.23 in 7.0 mi North 5.8 mph - N/A Rain Light Rain
10:35 AM 45.5 °F 39.2 °F 44.2 °F 95% 30.22 in 3.0 mi NNE 13.8 mph - N/A Rain Heavy Rain
10:55 AM 54.3 °F - 53.8 °F 98% 30.22 in 10.0 mi East 10.4 mph - N/A Rain Light Rain
11:14 AM 55.6 °F - 53.6 °F 93% 30.21 in 10.0 mi East 11.5 mph 19.6 mph N/A   Mostly Cloudy
11:35 AM 56.1 °F - 53.6 °F 91% 30.21 in 10.0 mi East 10.4 mph 17.3 mph N/A   Mostly Cloudy
11:55 AM 55.6 °F - 53.1 °F 91% 30.20 in 10.0 mi East 10.4 mph - N/A   Mostly Cloudy
12:14 PM 55.9 °F - 53.2 °F 91% 30.19 in 10.0 mi ESE 11.5 mph - N/A   Overcast
12:35 PM 57.2 °F - 54.0 °F 89% 30.19 in 10.0 mi East 10.4 mph - N/A   Overcast
12:55 PM 58.3 °F - 54.1 °F 86% 30.18 in 10.0 mi East 12.7 mph - N/A   Mostly Cloudy
1:14 PM 59.7 °F - 54.7 °F 83% 30.18 in 10.0 mi ESE 9.2 mph - N/A   Mostly Cloudy
1:35 PM 61.0 °F - 54.5 °F 79% 30.18 in 10.0 mi East 12.7 mph - N/A   Mostly Cloudy
1:55 PM 61.0 °F - 53.6 °F 77% 30.17 in 10.0 mi East 12.7 mph - N/A   Mostly Cloudy
2:14 PM 61.7 °F - 53.4 °F 74% 30.17 in 10.0 mi East 10.4 mph - N/A   Overcast
2:35 PM 62.1 °F - 53.2 °F 73% 30.17 in 10.0 mi East 12.7 mph - N/A   Overcast
2:55 PM 62.6 °F - 53.2 °F 71% 30.16 in 10.0 mi East 12.7 mph - N/A   Overcast
3:15 PM 63.3 °F - 53.6 °F 71% 30.15 in 10.0 mi East 12.7 mph - N/A   Mostly Cloudy
3:35 PM 63.5 °F - 53.6 °F 70% 30.15 in 10.0 mi East 12.7 mph - N/A   Mostly Cloudy
3:54 PM 64.8 °F - 54.1 °F 68% 30.15 in 10.0 mi East 8.1 mph - N/A   Mostly Cloudy
4:15 PM 65.3 °F - 54.3 °F 68% 30.14 in 10.0 mi East 8.1 mph - N/A   Clear
4:35 PM 66.2 °F - 54.5 °F 66% 30.14 in 10.0 mi East 6.9 mph - N/A   Clear
4:54 PM 66.4 °F - 54.3 °F 65% 30.14 in 10.0 mi East 8.1 mph - N/A   Clear
5:15 PM 66.4 °F - 54.3 °F 65% 30.13 in 10.0 mi East 8.1 mph - N/A   Clear
5:35 PM 67.1 °F - 54.5 °F 64% 30.13 in 10.0 mi ENE 6.9 mph - N/A   Scattered Clouds
5:54 PM 65.5 °F - 53.6 °F 65% 30.13 in 10.0 mi East 6.9 mph - N/A   Clear
6:34 PM 63.3 °F - 54.0 °F 71% 30.13 in 10.0 mi East 5.8 mph - N/A   Clear
6:55 PM 62.6 °F - 53.6 °F 72% 30.13 in 10.0 mi East 4.6 mph - N/A   Clear
7:15 PM 61.7 °F - 51.3 °F 69% 30.14 in 10.0 mi East 5.8 mph - N/A   Scattered Clouds
7:34 PM 64.0 °F - 52.0 °F 65% 30.14 in 10.0 mi East 13.8 mph 18.4 mph N/A   Mostly Cloudy
7:55 PM 62.4 °F - 51.3 °F 67% 30.15 in 10.0 mi ESE 9.2 mph - N/A   Mostly Cloudy
8:15 PM 62.4 °F - 51.6 °F 68% 30.15 in 10.0 mi ESE 9.2 mph - N/A   Overcast
8:34 PM 61.7 °F - 51.3 °F 69% 30.16 in 10.0 mi ESE 9.2 mph - N/A   Overcast
8:55 PM 61.0 °F - 51.1 °F 70% 30.15 in 10.0 mi East 9.2 mph - N/A   Mostly Cloudy
9:14 PM 60.8 °F - 50.9 °F 70% 30.16 in 10.0 mi ESE 8.1 mph - N/A   Mostly Cloudy
9:35 PM 61.0 °F - 51.1 °F 70% 30.17 in 10.0 mi East 5.8 mph - N/A   Scattered Clouds
9:55 PM 56.5 °F - 49.6 °F 78% 30.17 in 10.0 mi ENE 8.1 mph - N/A   Mostly Cloudy
10:14 PM 56.5 °F - 50.0 °F 79% 30.16 in 10.0 mi East 9.2 mph - N/A   Overcast
10:35 PM 56.3 °F - 50.0 °F 79% 30.16 in 10.0 mi East 6.9 mph - N/A   Overcast
10:54 PM 55.8 °F - 49.6 °F 80% 30.16 in 10.0 mi East 9.2 mph - N/A   Overcast
11:15 PM 55.8 °F - 49.5 °F 79% 30.16 in 10.0 mi East 8.1 mph - N/A   Overcast
11:34 PM 55.4 °F - 49.5 °F 80% 30.16 in 10.0 mi East 9.2 mph - N/A   Overcast
11:55 PM 54.5 °F - 49.1 °F 82% 30.15 in 10.0 mi East 10.4 mph - N/A   Overcast